FW6330 Weather Reports


Display with metric or nautical units.
time (UTC)temp
F
wind
direction
speed
MPH
gust
MPH
rain 1hr
in
rain 24hr
in
rain mn
in
humidity
%
barometer
mb
20260505230037 50 131 1.0 7.0 0.00 0.00 0.00 68 1016.7
20260505224532 50 211 1.0 10.0 0.00 0.00 0.00 68 1016.8
20260505223033 49 231 0.0 6.0 0.00 0.00 0.00 69 1016.8
20260505221524 50 294 1.0 7.0 0.00 0.00 0.00 70 1016.9
20260505220016 49 280 3.0 11.0 0.00 0.00 0.00 70 1017.0
20260505214518 49 152 1.0 8.0 0.00 0.00 0.00 71 1017.2
20260505213008 48 234 3.0 6.0 0.00 0.00 0.00 73 1017.2
20260505211505 48 354 2.0 8.0 0.00 0.00 0.00 74 1017.4
20260505210059 47 317 3.0 11.0 0.00 0.00 0.00 74 1017.3
20260505204554 47 69 1.0 11.0 0.00 0.00 0.00 78 1017.4
20260505203052 46 68 3.0 8.0 0.00 0.00 0.00 76 1017.3
20260505201544 45 168 2.0 8.0 0.00 0.00 0.00 79 1017.4
20260505200050 45 285 1.0 6.0 0.00 0.00 0.00 80 1017.3
20260505194537 44 265 3.0 9.0 0.00 0.00 0.00 81 1017.3
20260505193035 45 188 3.0 9.0 0.00 0.00 0.00 81 1017.1
20260505191526 45 113 2.0 8.0 0.00 0.00 0.00 82 1017.0
20260505190028 45 158 1.0 6.0 0.00 0.00 0.00 82 1016.8
20260505184520 45 311 0.0 2.0 0.00 0.00 0.00 84 1016.7
20260505183021 43 322 1.0 3.0 0.00 0.00 0.00 84 1016.6
20260505181509 43 229 0.0 3.0 0.00 0.00 0.00 88 1016.6
20260505180009 43 289 0.0 4.0 0.00 0.00 0.00 88 1016.3
20260505174605 42 56 0.0 1.0 0.00 0.00 0.00 87 1016.1
20260505173055 42 244 0.0 3.0 0.00 0.00 0.00 89 1016.0
20260505171551 42 193 0.0 1.0 0.00 0.00 0.00 90 1015.9
20260505170045 41 157 0.0 0.0 0.00 0.00 0.00 91 1016.0
20260505164541 38 38 0.0 0.0 0.00 0.00 0.00 91 1015.7
20260505163037 38 345 0.0 1.0 0.00 0.00 0.00 92 1015.6
20260505161532 38 187 0.0 1.0 0.00 0.00 0.00 93 1015.2
20260505153022 0 0.0 0.0 0.00 0.00 0.00 1015.1
20260505151514 0 0.0 0.0 0.00 0.00 0.00 1015.1
20260505140113 32 122 0.0 0.0 0.00 0.00 0.00 95 1015.2
20260505124553 32 244 0.0 0.0 0.00 0.00 0.00 95 1015.1
20260505123053 32 130 0.0 0.0 0.00 0.00 0.00 95 1014.9
20260505121549 32 229 0.0 0.0 0.00 0.00 0.00 95 1014.8
20260505120053 32 112 0.0 0.0 0.00 0.00 0.00 95 1014.9
20260505114557 32 129 0.0 0.0 0.00 0.00 0.00 95 1014.8
20260505113059 32 174 0.0 0.0 0.00 0.00 0.00 95 1014.9
20260505111549 32 150 0.0 0.0 0.00 0.00 0.00 95 1014.7
20260505101541 32 173 0.0 0.0 0.00 0.00 0.00 95 1014.6
20260505100024 32 161 0.0 0.0 0.00 0.00 0.00 95 1014.7
20260505094533 32 100 0.0 0.0 0.00 0.00 0.00 95 1014.9
20260505093021 32 168 0.0 0.0 0.00 0.00 0.00 95 1015.0
20260505091520 32 47 0.0 0.0 0.00 0.00 0.00 95 1014.9
20260505090021 32 269 0.0 0.0 0.00 0.00 0.00 95 1015.1
20260505084512 32 186 0.0 0.0 0.00 0.00 0.00 95 1015.0
20260505083015 32 136 0.0 0.0 0.00 0.00 0.00 94 1015.0
20260505081502 32 34 0.0 0.0 0.00 0.00 0.00 94 1015.4
20260505074557 32 330 0.0 0.0 0.00 0.00 0.00 94 1015.1
20260505073104 32 15 0.0 0.0 0.00 0.00 0.00 94 1015.2
20260505071558 32 186 0.0 0.0 0.00 0.00 0.00 94 1015.1
20260505070044 32 105 0.0 0.0 0.00 0.00 0.00 94 1014.7
20260505064540 32 46 0.0 0.0 0.00 0.00 0.00 94 1014.8
20260505063034 32 219 0.0 0.0 0.00 0.00 0.00 94 1014.9
20260505061530 32 2 0.0 0.0 0.00 0.00 0.00 94 1015.0
20260505060041 32 297 0.0 0.0 0.00 0.00 0.00 94 1015.1
20260505054521 33 142 0.0 0.0 0.00 0.00 0.00 94 1015.4
20260505053016 33 328 0.0 0.0 0.00 0.00 0.00 94 1015.1
20260505051518 33 286 0.0 0.0 0.00 0.00 0.00 94 1014.9
20260505041602 35 194 0.0 0.0 0.00 0.00 0.00 94 1014.7
20260505040050 35 145 0.0 0.0 0.00 0.00 0.00 94 1014.7
20260505034552 35 181 0.0 0.0 0.00 0.00 0.00 94 1014.2
20260505033049 35 262 0.0 0.0 0.00 0.00 0.00 94 1014.1
20260505031553 35 327 0.0 0.0 0.00 0.00 0.00 94 1014.1
20260505030047 35 220 0.0 0.0 0.00 0.00 0.00 93 1014.1
20260505024549 35 254 0.0 0.0 0.00 0.00 0.00 93 1013.9
20260505023051 35 240 0.0 0.0 0.00 0.00 0.00 93 1014.0
20260505021545 35 160 0.0 0.0 0.00 0.00 0.00 93 1013.8
20260505020144 35 288 0.0 1.0 0.00 0.00 0.00 93 1014.1
20260505014544 36 65 0.0 1.0 0.00 0.00 0.00 93 1014.1
20260505013059 36 225 0.0 2.0 0.00 0.00 0.00 92 1014.3
20260505011540 36 13 0.0 1.0 0.00 0.00 0.00 93 1014.1
20260505010036 37 30 0.0 0.0 0.00 0.00 0.00 93 1013.9
20260505004532 37 148 0.0 0.0 0.00 0.00 0.00 93 1014.1
20260505003030 37 196 0.0 0.0 0.00 0.00 0.00 92 1014.1
20260505001523 37 131 0.0 0.0 0.00 0.00 0.00 92 1014.0
20260505000024 37 136 0.0 0.0 0.00 0.00 0.00 92 1013.9
20260504234513 38 43 0.0 1.0 0.00 0.00 0.00 92 1014.0
20260504233011 38 165 0.0 1.0 0.00 0.00 0.00 92 1014.1
20260504231505 37 44 0.0 1.0 0.00 0.00 0.00 93 1014.2